This is the latest recevied weather packets stored in our database for station/object 9M4GEK-3. If no packets are shown the sender has not sent any weather packets the latest 10 day(s).
| Time | Temp. | Humidity | Pressure | Rain* | Wind** | Luminosity | Snow |
|---|---|---|---|---|---|---|---|
| 1778126427 | 41.11° C | 36% | 1007.6 hPa | - | - | - | - |
| 1778125527 | 42.78° C | 34% | 1007.8 hPa | - | - | - | - |
| 1778124627 | 41.11° C | 37% | 1007.7 hPa | - | - | - | - |
| 1778123727 | 42.22° C | 37% | 1007.9 hPa | - | - | - | - |
| 1778122826 | 40° C | 39% | 1008 hPa | - | - | - | - |
| 1778121927 | 38.33° C | 42% | 1007.9 hPa | - | - | - | - |
| 1778121026 | 37.22° C | 44% | 1007.9 hPa | - | - | - | - |
| 1778120126 | 38.33° C | 43% | 1007.9 hPa | - | - | - | - |
| 1778119226 | 38.33° C | 45% | 1008 hPa | - | - | - | - |
| 1778118326 | 37.78° C | 47% | 1008 hPa | - | - | - | - |
| 1778117511 | 37.22° C | 50% | 1007.7 hPa | - | - | - | - |
| 1778117425 | 37.22° C | 50% | 1007.7 hPa | - | - | - | - |
| 1778116635 | 36.11° C | 54% | 1007.5 hPa | - | - | - | - |
| 1778116526 | 36.11° C | 54% | 1007.5 hPa | - | - | - | - |
| 1778115626 | 35° C | 55% | 1007.5 hPa | - | - | - | - |
| 1778114781 | 33.33° C | 62% | 1007.1 hPa | - | - | - | - |
| 1778114726 | 34.44° C | 58% | 1007.3 hPa | - | - | - | - |
| 1778113825 | 33.33° C | 62% | 1007.1 hPa | - | - | - | - |
| 1778113722 | 31.11° C | 68% | 1006.9 hPa | - | - | - | - |
| 1778112924 | 31.11° C | 68% | 1006.9 hPa | - | - | - | - |
| 1778112024 | 29.44° C | 71% | 1006.9 hPa | - | - | - | - |
| 1778111124 | 28.89° C | 75% | 1006.7 hPa | - | - | - | - |
| 1778110922 | 27.22° C | 78% | 1006.6 hPa | - | - | - | - |
| 1778110224 | 27.22° C | 78% | 1006.6 hPa | - | - | - | - |
| 1778109324 | 26.67° C | 81% | 1006.4 hPa | - | - | - | - |
* Rain since midnight (hover to see other rain measurements)
** Current wind speed in m/s (hover to see current wind gust speed)